TimeEDT,TemperatureF,Dew PointF,Humidity,Sea Level PressureIn,VisibilityMPH,Wind Direction,Wind SpeedMPH,Gust SpeedMPH,PrecipitationIn,Events,Conditions,WindDirDegrees,DateUTC
6:55 AM,68.9,68.9,100,29.98,4.0,SSW,9.2,-,N/A,,Overcast,200,2013-07-22 10:55:00
7:15 AM,68.9,68.9,100,29.99,5.0,Calm,Calm,-,N/A,,Overcast,0,2013-07-22 11:15:00
7:35 AM,69.1,68.9,99,29.99,7.0,Calm,Calm,-,N/A,,Overcast,0,2013-07-22 11:35:00
7:55 AM,69.4,68.9,98,30.00,7.0,Calm,Calm,-,N/A,,Overcast,0,2013-07-22 11:55:00
8:15 AM,70.0,68.9,96,30.00,10.0,Calm,Calm,-,N/A,,Mostly Cloudy,0,2013-07-22 12:15:00
8:35 AM,70.2,68.5,95,30.00,10.0,Calm,Calm,-,N/A,,Scattered Clouds,0,2013-07-22 12:35:00
8:55 AM,70.7,68.7,93,30.01,10.0,Calm,Calm,-,N/A,,Mostly Cloudy,0,2013-07-22 12:55:00
9:35 AM,71.2,69.1,93,30.01,10.0,Calm,Calm,-,N/A,,Overcast,0,2013-07-22 13:35:00
10:35 AM,74.1,70.2,87,30.02,10.0,Calm,Calm,-,N/A,,Mostly Cloudy,0,2013-07-22 14:35:00
10:55 AM,75.6,70.7,85,30.02,10.0,Calm,Calm,-,N/A,,Mostly Cloudy,0,2013-07-22 14:55:00
11:15 AM,76.6,70.2,80,30.01,10.0,Calm,Calm,-,N/A,,Scattered Clouds,0,2013-07-22 15:15:00
11:35 AM,77.9,71.1,79,30.01,10.0,Calm,Calm,-,N/A,,Scattered Clouds,0,2013-07-22 15:35:00
11:55 AM,78.8,71.6,78,30.00,10.0,Calm,Calm,-,N/A,,Scattered Clouds,0,2013-07-22 15:55:00
12:15 PM,80.1,71.1,74,30.00,10.0,Calm,Calm,-,N/A,,Clear,0,2013-07-22 16:15:00
12:35 PM,80.8,72.1,75,29.99,10.0,South,4.6,-,N/A,,Clear,180,2013-07-22 16:35:00
12:55 PM,81.0,70.9,71,29.99,10.0,Calm,Calm,-,N/A,,Scattered Clouds,0,2013-07-22 16:55:00
1:15 PM,81.9,71.6,71,29.98,10.0,South,4.6,8.1,N/A,,Mostly Cloudy,180,2013-07-22 17:15:00
1:35 PM,83.1,72.0,69,29.97,10.0,South,8.1,-,N/A,,Mostly Cloudy,180,2013-07-22 17:35:00
1:55 PM,82.9,71.2,68,29.96,10.0,South,5.8,-,N/A,,Scattered Clouds,190,2013-07-22 17:55:00
2:15 PM,82.8,71.1,68,29.96,10.0,South,8.1,-,N/A,,Mostly Cloudy,170,2013-07-22 18:15:00
2:35 PM,80.6,71.4,73,29.96,10.0,SW,4.6,-,N/A,Thunderstorm,Overcast,220,2013-07-22 18:35:00
2:55 PM,76.3,70.7,83,29.97,7.0,West,12.7,21.9,N/A,Rain,Rain,260,2013-07-22 18:55:00
3:15 PM,70.7,66.7,87,29.95,7.0,SSW,9.2,-,0.02,Rain,Light Rain,200,2013-07-22 19:15:00
3:35 PM,73.8,70.7,90,29.94,10.0,SSW,9.2,-,0.03,,Mostly Cloudy,200,2013-07-22 19:35:00
3:55 PM,77.0,69.4,77,29.93,10.0,Calm,Calm,-,0.03,,Scattered Clouds,0,2013-07-22 19:55:00
4:15 PM,78.4,70.3,76,29.93,10.0,Calm,Calm,-,N/A,,Scattered Clouds,0,2013-07-22 20:15:00
4:35 PM,78.8,71.4,78,29.93,10.0,Calm,Calm,-,N/A,,Mostly Cloudy,0,2013-07-22 20:35:00
4:55 PM,80.8,72.0,74,29.91,10.0,South,5.8,-,N/A,,Mostly Cloudy,180,2013-07-22 20:55:00
5:15 PM,81.1,72.1,74,29.91,10.0,South,8.1,20.7,N/A,,Scattered Clouds,190,2013-07-22 21:15:00
5:35 PM,80.2,71.6,75,29.90,10.0,South,4.6,21.9,N/A,,Clear,190,2013-07-22 21:35:00
5:55 PM,78.8,72.5,81,29.89,10.0,SSW,4.6,-,N/A,Thunderstorm,Clear,200,2013-07-22 21:55:00
6:15 PM,77.7,72.3,83,29.89,10.0,South,3.5,-,N/A,,Scattered Clouds,190,2013-07-22 22:15:00
6:35 PM,79.0,74.8,87,29.89,10.0,WNW,3.5,-,0.01,Rain,Light Rain,290,2013-07-22 22:35:00
6:55 PM,78.8,73.8,84,29.88,10.0,South,4.6,-,0.01,,Scattered Clouds,180,2013-07-22 22:55:00
7:15 PM,78.8,73.9,85,29.88,10.0,Calm,Calm,-,N/A,,Clear,0,2013-07-22 23:15:00
7:35 PM,78.6,74.5,87,29.89,10.0,Calm,Calm,-,N/A,,Clear,0,2013-07-22 23:35:00
7:55 PM,77.9,74.3,89,29.88,10.0,South,3.5,-,N/A,,Scattered Clouds,190,2013-07-22 23:55:00
8:15 PM,77.9,72.7,84,29.89,10.0,Calm,Calm,-,N/A,,Scattered Clouds,0,2013-07-23 00:15:00
8:35 PM,77.0,72.0,84,29.89,10.0,SW,5.8,-,N/A,,Scattered Clouds,220,2013-07-23 00:35:00